Year,Month,Day,Hour,Minute,Value (Times are PST for temperature in C)
2009,08,18,00,00,14.30
2009,08,18,00,01,14.30
2009,08,18,00,02,14.30
2009,08,18,00,03,14.30
2009,08,18,00,04,14.30
2009,08,18,00,05,14.30
2009,08,18,00,06,14.30
2009,08,18,00,07,14.30
2009,08,18,00,08,14.30
2009,08,18,00,09,14.30
2009,08,18,00,10,14.30
2009,08,18,00,11,14.30
2009,08,18,00,12,14.30
2009,08,18,00,13,14.30
2009,08,18,00,14,14.30
2009,08,18,00,15,14.30
2009,08,18,00,16,14.30
2009,08,18,00,17,14.30
2009,08,18,00,18,14.20
2009,08,18,00,19,14.20
2009,08,18,00,20,14.20
2009,08,18,00,21,14.20
2009,08,18,00,22,14.20
2009,08,18,00,23,14.20
2009,08,18,00,24,14.20
2009,08,18,00,25,14.20
2009,08,18,00,26,14.20
2009,08,18,00,27,14.20
2009,08,18,00,28,14.20
2009,08,18,00,29,14.20
2009,08,18,00,30,14.20
2009,08,18,00,31,14.20
2009,08,18,00,32,14.10
2009,08,18,00,33,14.10
2009,08,18,00,34,14.10
2009,08,18,00,35,14.10
2009,08,18,00,36,14.10
2009,08,18,00,37,14.10
2009,08,18,00,38,14.10
2009,08,18,00,39,14.00
2009,08,18,00,40,14.00
2009,08,18,00,41,14.00
2009,08,18,00,42,14.00
2009,08,18,00,43,14.00
2009,08,18,00,44,14.00
2009,08,18,00,45,13.90
2009,08,18,00,46,13.90
2009,08,18,00,47,13.90
2009,08,18,00,48,13.90
2009,08,18,00,49,13.80
2009,08,18,00,50,13.80
2009,08,18,00,51,13.80
2009,08,18,00,52,13.80
2009,08,18,00,53,13.80
2009,08,18,00,54,13.80
2009,08,18,00,55,13.80
2009,08,18,00,56,13.80
2009,08,18,00,57,13.80
2009,08,18,00,58,13.80
2009,08,18,00,59,13.80
2009,08,18,01,00,13.80
2009,08,18,01,01,13.80
2009,08,18,01,02,13.80
2009,08,18,01,03,13.80
2009,08,18,01,04,13.80
2009,08,18,01,05,13.70
2009,08,18,01,06,13.70
2009,08,18,01,07,13.70
2009,08,18,01,08,13.70
2009,08,18,01,09,13.70
2009,08,18,01,10,13.70
2009,08,18,01,11,13.70
2009,08,18,01,12,13.70
2009,08,18,01,13,13.60
2009,08,18,01,14,13.60
2009,08,18,01,15,13.60
2009,08,18,01,16,13.60
2009,08,18,01,17,13.60
2009,08,18,01,18,13.60
2009,08,18,01,19,13.60
2009,08,18,01,20,13.60
2009,08,18,01,21,13.60
2009,08,18,01,22,13.60
2009,08,18,01,23,13.60
2009,08,18,01,24,13.60
2009,08,18,01,25,13.60
2009,08,18,01,26,13.60
2009,08,18,01,27,13.60
2009,08,18,01,28,13.60
2009,08,18,01,29,13.50
2009,08,18,01,30,13.60
2009,08,18,01,31,13.60
2009,08,18,01,32,13.60
2009,08,18,01,33,13.60
2009,08,18,01,34,13.60
2009,08,18,01,35,13.60
2009,08,18,01,36,13.60
2009,08,18,01,37,13.60
2009,08,18,01,38,13.60
2009,08,18,01,39,13.60
2009,08,18,01,40,13.60
2009,08,18,01,41,13.60
2009,08,18,01,42,13.60
2009,08,18,01,43,13.60
2009,08,18,01,44,13.60
2009,08,18,01,45,13.60
2009,08,18,01,46,13.60
2009,08,18,01,47,13.60
2009,08,18,01,48,13.60
2009,08,18,01,49,13.60
2009,08,18,01,50,13.60
2009,08,18,01,51,13.60
2009,08,18,01,52,13.60
2009,08,18,01,53,13.60
2009,08,18,01,54,13.60
2009,08,18,01,55,13.60
2009,08,18,01,56,13.70
2009,08,18,01,57,13.70
2009,08,18,01,58,13.70
2009,08,18,01,59,13.70
2009,08,18,02,00,13.70
2009,08,18,02,01,13.70
2009,08,18,02,02,13.70
2009,08,18,02,03,13.70
2009,08,18,02,04,13.70
2009,08,18,02,05,13.70
2009,08,18,02,06,13.70
2009,08,18,02,07,13.70
2009,08,18,02,08,13.70
2009,08,18,02,09,13.60
2009,08,18,02,10,13.60
2009,08,18,02,11,13.60
2009,08,18,02,12,13.60
2009,08,18,02,13,13.60
2009,08,18,02,14,13.60
2009,08,18,02,15,13.60
2009,08,18,02,16,13.60
2009,08,18,02,17,13.60
2009,08,18,02,18,13.60
2009,08,18,02,19,13.60
2009,08,18,02,20,13.60
2009,08,18,02,21,13.60
2009,08,18,02,22,13.60
2009,08,18,02,23,13.60
2009,08,18,02,24,13.60
2009,08,18,02,25,13.60
2009,08,18,02,26,13.50
2009,08,18,02,27,13.50
2009,08,18,02,28,13.50
2009,08,18,02,29,13.50
2009,08,18,02,30,13.50
2009,08,18,02,31,13.40
2009,08,18,02,32,13.40
2009,08,18,02,33,13.40
2009,08,18,02,34,13.40
2009,08,18,02,35,13.40
2009,08,18,02,36,13.40
2009,08,18,02,37,13.40
2009,08,18,02,38,13.30
2009,08,18,02,39,13.30
2009,08,18,02,40,13.30
2009,08,18,02,41,13.30
2009,08,18,02,42,13.30
2009,08,18,02,43,13.30
2009,08,18,02,44,13.30
2009,08,18,02,45,13.30
2009,08,18,02,46,13.20
2009,08,18,02,47,13.20
2009,08,18,02,48,13.20
2009,08,18,02,49,13.20
2009,08,18,02,50,13.20
2009,08,18,02,51,13.20
2009,08,18,02,52,13.20
2009,08,18,02,53,13.20
2009,08,18,02,54,13.10
2009,08,18,02,55,13.10
2009,08,18,02,56,13.10
2009,08,18,02,57,13.10
2009,08,18,02,58,13.10
2009,08,18,02,59,13.10
2009,08,18,03,00,13.10
2009,08,18,03,01,13.10
2009,08,18,03,02,13.00
2009,08,18,03,03,13.00
2009,08,18,03,04,13.00
2009,08,18,03,05,13.00
2009,08,18,03,06,13.00
2009,08,18,03,07,13.00
2009,08,18,03,08,13.00
2009,08,18,03,09,13.00
2009,08,18,03,10,12.90
2009,08,18,03,11,12.90
2009,08,18,03,12,12.90
2009,08,18,03,13,12.90
2009,08,18,03,14,12.90
2009,08,18,03,15,12.90
2009,08,18,03,16,12.90
2009,08,18,03,17,12.80
2009,08,18,03,18,12.80
2009,08,18,03,19,12.80
2009,08,18,03,20,12.80
2009,08,18,03,21,12.80
2009,08,18,03,22,12.80
2009,08,18,03,23,12.80
2009,08,18,03,24,12.80
2009,08,18,03,25,12.80
2009,08,18,03,26,12.80
2009,08,18,03,27,12.70
2009,08,18,03,28,12.70
2009,08,18,03,29,12.70
2009,08,18,03,30,12.70
2009,08,18,03,31,12.70
2009,08,18,03,32,12.70
2009,08,18,03,33,12.70
2009,08,18,03,34,12.60
2009,08,18,03,35,12.60
2009,08,18,03,36,12.60
2009,08,18,03,37,12.60
2009,08,18,03,38,12.60
2009,08,18,03,39,12.60
2009,08,18,03,40,12.60
2009,08,18,03,41,12.60
2009,08,18,03,42,12.60
2009,08,18,03,43,12.50
2009,08,18,03,44,12.50
2009,08,18,03,45,12.50
2009,08,18,03,46,12.50
2009,08,18,03,47,12.50
2009,08,18,03,48,12.50
2009,08,18,03,49,12.50
2009,08,18,03,50,12.50
2009,08,18,03,51,12.50
2009,08,18,03,52,12.50
2009,08,18,03,53,12.50
2009,08,18,03,54,12.50
2009,08,18,03,55,12.50
2009,08,18,03,56,12.50
2009,08,18,03,57,12.50
2009,08,18,03,58,12.40
2009,08,18,03,59,12.40
2009,08,18,04,00,12.40
2009,08,18,04,01,12.40
2009,08,18,04,02,12.40
2009,08,18,04,03,12.40
2009,08,18,04,14,12.30
2009,08,18,04,19,12.20
2009,08,18,04,20,12.20
2009,08,18,04,21,12.20
2009,08,18,04,22,12.20
2009,08,18,04,23,12.20
2009,08,18,04,24,12.20
2009,08,18,04,25,12.20
2009,08,18,04,26,12.20
2009,08,18,04,27,12.20
2009,08,18,04,28,12.20
2009,08,18,04,29,12.20
2009,08,18,04,30,12.20
2009,08,18,04,31,12.20
2009,08,18,04,32,12.20
2009,08,18,04,33,12.20
2009,08,18,04,34,12.20
2009,08,18,04,35,12.20
2009,08,18,04,36,12.20
2009,08,18,04,37,12.20
2009,08,18,04,38,12.20
2009,08,18,04,39,12.20
2009,08,18,04,40,12.20
2009,08,18,04,41,12.20
2009,08,18,04,42,12.20
2009,08,18,04,43,12.20
2009,08,18,04,44,12.20
2009,08,18,04,45,12.20
2009,08,18,04,46,12.20
2009,08,18,04,47,12.20
2009,08,18,04,48,12.20
2009,08,18,04,49,12.20
2009,08,18,04,50,12.20
2009,08,18,04,51,12.10
2009,08,18,04,52,12.10
2009,08,18,04,53,12.10
2009,08,18,04,54,12.10
2009,08,18,04,55,12.10
2009,08,18,04,56,12.10
2009,08,18,04,57,12.10
2009,08,18,04,58,12.00
2009,08,18,04,59,12.00
2009,08,18,05,00,12.00
2009,08,18,05,01,12.00
2009,08,18,05,02,11.90
2009,08,18,05,03,11.90
2009,08,18,05,04,11.90
2009,08,18,05,05,11.90
2009,08,18,05,06,11.90
2009,08,18,05,07,11.90
2009,08,18,05,08,11.90
2009,08,18,05,09,11.90
2009,08,18,05,10,11.90
2009,08,18,05,11,11.90
2009,08,18,05,12,11.80
2009,08,18,05,13,11.80
2009,08,18,05,14,11.80
2009,08,18,05,15,11.80
2009,08,18,05,16,11.80
2009,08,18,05,17,11.80
2009,08,18,05,18,11.80
2009,08,18,05,19,11.80
2009,08,18,05,20,11.80
2009,08,18,05,21,11.80
2009,08,18,05,22,11.80
2009,08,18,05,23,11.80
2009,08,18,05,24,11.80
2009,08,18,05,25,11.80
2009,08,18,05,26,11.80
2009,08,18,05,27,11.80
2009,08,18,05,28,11.80
2009,08,18,05,29,11.80
2009,08,18,05,30,11.80
2009,08,18,05,31,11.80
2009,08,18,05,32,11.80
2009,08,18,05,33,11.80
2009,08,18,05,34,11.80
2009,08,18,05,35,11.70
2009,08,18,05,36,11.70
2009,08,18,05,37,11.70
2009,08,18,05,38,11.70
2009,08,18,05,39,11.80
2009,08,18,05,40,11.80
2009,08,18,05,41,11.80
2009,08,18,05,42,11.80
2009,08,18,05,43,11.80
2009,08,18,05,44,11.80
2009,08,18,05,45,11.80
2009,08,18,05,46,11.70
2009,08,18,05,47,11.70
2009,08,18,05,48,11.70
2009,08,18,05,49,11.70
2009,08,18,05,50,11.70
2009,08,18,05,51,11.70
2009,08,18,05,52,11.70
2009,08,18,05,53,11.70
2009,08,18,05,54,11.70
2009,08,18,05,55,11.70
2009,08,18,05,56,11.70
2009,08,18,05,57,11.60
2009,08,18,05,58,11.60
2009,08,18,05,59,11.60
2009,08,18,06,00,11.60
2009,08,18,06,01,11.60
2009,08,18,06,02,11.60
2009,08,18,06,03,11.60
2009,08,18,06,04,11.60
2009,08,18,06,05,11.60
2009,08,18,06,06,11.60
2009,08,18,06,07,11.60
2009,08,18,06,08,11.60
2009,08,18,06,09,11.60
2009,08,18,06,10,11.60
2009,08,18,06,11,11.60
2009,08,18,06,12,11.60
2009,08,18,06,13,11.60
2009,08,18,06,14,11.60
2009,08,18,06,15,11.60
2009,08,18,06,16,11.60
2009,08,18,06,17,11.60
2009,08,18,06,18,11.60
2009,08,18,06,19,11.60
2009,08,18,06,20,11.60
2009,08,18,06,21,11.60
2009,08,18,06,22,11.60
2009,08,18,06,23,11.60
2009,08,18,06,24,11.60
2009,08,18,06,25,11.60
2009,08,18,06,26,11.60
2009,08,18,06,27,11.60
2009,08,18,06,28,11.60
2009,08,18,06,29,11.50
2009,08,18,06,30,11.50
2009,08,18,06,31,11.50
2009,08,18,06,32,11.50
2009,08,18,06,33,11.50
2009,08,18,06,34,11.50
2009,08,18,06,35,11.50
2009,08,18,06,36,11.50
2009,08,18,06,37,11.50
2009,08,18,06,38,11.60
2009,08,18,06,39,11.60
2009,08,18,06,40,11.60
2009,08,18,06,41,11.60
2009,08,18,06,42,11.60
2009,08,18,06,43,11.60
2009,08,18,06,44,11.60
2009,08,18,06,45,11.60
2009,08,18,06,46,11.60
2009,08,18,06,47,11.60
2009,08,18,06,48,11.60
2009,08,18,06,49,11.60
2009,08,18,06,50,11.60
2009,08,18,06,51,11.60
2009,08,18,06,52,11.60
2009,08,18,06,53,11.60
2009,08,18,06,54,11.70
2009,08,18,06,55,11.70
2009,08,18,06,56,11.70
2009,08,18,06,57,11.70
2009,08,18,06,58,11.70
2009,08,18,06,59,11.70
2009,08,18,07,00,11.70
2009,08,18,07,01,11.70
2009,08,18,07,02,11.70
2009,08,18,07,03,11.70
2009,08,18,07,04,11.70
2009,08,18,07,05,11.80
2009,08,18,07,06,11.80
2009,08,18,07,07,11.80
2009,08,18,07,08,11.80
2009,08,18,07,09,11.80
2009,08,18,07,10,11.80
2009,08,18,07,11,11.80
2009,08,18,07,12,11.80
2009,08,18,07,13,11.90
2009,08,18,07,14,11.90
2009,08,18,07,15,11.90
2009,08,18,07,16,11.90
2009,08,18,07,17,11.90
2009,08,18,07,18,11.90
2009,08,18,07,19,11.90
2009,08,18,07,20,11.90
2009,08,18,07,21,12.00
2009,08,18,07,22,12.00
2009,08,18,07,23,12.00
2009,08,18,07,24,12.10
2009,08,18,07,25,12.10
2009,08,18,07,26,12.10
2009,08,18,07,27,12.10
2009,08,18,07,28,12.10
2009,08,18,07,29,12.20
2009,08,18,07,30,12.20
2009,08,18,07,31,12.20
2009,08,18,07,32,12.20
2009,08,18,07,33,12.30
2009,08,18,07,34,12.30
2009,08,18,07,35,12.30
2009,08,18,07,36,12.30
2009,08,18,07,37,12.30
2009,08,18,07,38,12.40
2009,08,18,07,39,12.40
2009,08,18,07,40,12.40
2009,08,18,07,41,12.40
2009,08,18,07,42,12.40
2009,08,18,07,43,12.50
2009,08,18,07,44,12.50
2009,08,18,07,45,12.50
2009,08,18,07,46,12.60
2009,08,18,07,47,12.60
2009,08,18,07,48,12.70
2009,08,18,07,49,12.70
2009,08,18,07,50,12.80
2009,08,18,07,51,12.80
2009,08,18,07,52,12.80
2009,08,18,07,53,12.90
2009,08,18,07,54,12.90
2009,08,18,07,55,12.90
2009,08,18,07,56,13.00
2009,08,18,07,57,13.00
2009,08,18,07,58,13.10
2009,08,18,07,59,13.10
2009,08,18,08,00,13.20
2009,08,18,08,01,13.20
2009,08,18,08,02,13.30
2009,08,18,08,03,13.30
2009,08,18,08,04,13.40
2009,08,18,08,05,13.50
2009,08,18,08,06,13.60
2009,08,18,08,07,13.70
2009,08,18,08,08,13.80
2009,08,18,08,09,13.90
2009,08,18,08,10,14.00
2009,08,18,08,11,14.20
2009,08,18,08,12,14.30
2009,08,18,08,13,14.40
2009,08,18,08,14,14.50
2009,08,18,08,15,14.70
2009,08,18,08,16,14.80
2009,08,18,08,17,15.00
2009,08,18,08,18,15.00
2009,08,18,08,19,15.10
2009,08,18,08,20,15.20
2009,08,18,08,21,15.30
2009,08,18,08,22,15.40
2009,08,18,08,23,15.50
2009,08,18,08,24,15.70
2009,08,18,08,25,15.90
2009,08,18,08,26,16.00
2009,08,18,08,27,16.20
2009,08,18,08,28,16.30
2009,08,18,08,29,16.40
2009,08,18,08,30,16.50
2009,08,18,08,31,16.60
2009,08,18,08,32,16.70
2009,08,18,08,33,16.80
2009,08,18,08,34,16.90
2009,08,18,08,35,17.00
2009,08,18,08,36,17.20
2009,08,18,08,37,17.30
2009,08,18,08,38,17.40
2009,08,18,08,39,17.50
2009,08,18,08,40,17.60
2009,08,18,08,41,17.80
2009,08,18,08,42,17.90
2009,08,18,08,43,18.10
2009,08,18,08,44,18.20
2009,08,18,08,45,18.40
2009,08,18,08,46,18.60
2009,08,18,08,47,18.80
2009,08,18,08,48,19.00
2009,08,18,08,49,19.10
2009,08,18,08,50,19.20
2009,08,18,08,51,19.40
2009,08,18,08,52,19.50
2009,08,18,08,53,19.60
2009,08,18,08,54,19.70
2009,08,18,08,55,19.80
2009,08,18,08,56,19.90
2009,08,18,08,57,20.00
2009,08,18,08,58,20.10
2009,08,18,08,59,20.10
2009,08,18,09,00,20.20
2009,08,18,09,01,20.20
2009,08,18,09,02,20.30
2009,08,18,09,03,20.40
2009,08,18,09,04,20.50
2009,08,18,09,05,20.60
2009,08,18,09,06,20.70
2009,08,18,09,07,20.70
2009,08,18,09,08,20.70
2009,08,18,09,09,20.60
2009,08,18,09,10,20.60
2009,08,18,09,11,20.50
2009,08,18,09,12,20.50
2009,08,18,09,13,20.60
2009,08,18,09,14,20.60
2009,08,18,09,15,20.70
2009,08,18,09,16,20.70
2009,08,18,09,17,20.80
2009,08,18,09,18,20.80
2009,08,18,09,19,20.80
2009,08,18,09,20,20.80
2009,08,18,09,21,20.70
2009,08,18,09,22,20.70
2009,08,18,09,23,20.60
2009,08,18,09,24,20.60
2009,08,18,09,25,20.60
2009,08,18,09,26,20.70
2009,08,18,09,27,20.70
2009,08,18,09,28,20.80
2009,08,18,09,29,20.80
2009,08,18,09,30,20.80
2009,08,18,09,31,20.90
2009,08,18,09,32,20.90
2009,08,18,09,33,20.90
2009,08,18,09,34,21.00
2009,08,18,09,35,21.10
2009,08,18,09,36,21.10
2009,08,18,09,37,21.10
2009,08,18,09,38,21.10
2009,08,18,09,39,21.10
2009,08,18,09,40,21.20
2009,08,18,09,41,21.20
2009,08,18,09,42,21.20
2009,08,18,09,43,21.30
2009,08,18,09,44,21.30
2009,08,18,09,45,21.30
2009,08,18,09,46,21.30
2009,08,18,09,47,21.40
2009,08,18,09,48,21.40
2009,08,18,09,49,21.40
2009,08,18,09,50,21.40
2009,08,18,09,51,21.40
2009,08,18,09,52,21.40
2009,08,18,09,53,21.40
2009,08,18,09,54,21.50
2009,08,18,09,55,21.40
2009,08,18,09,56,21.40
2009,08,18,09,57,21.30
2009,08,18,09,58,21.30
2009,08,18,09,59,21.30
2009,08,18,10,00,21.30
2009,08,18,10,01,21.30
2009,08,18,10,02,21.30
2009,08,18,10,03,21.30
2009,08,18,10,04,21.40
2009,08,18,10,05,21.40
2009,08,18,10,06,21.40
2009,08,18,10,07,21.50
2009,08,18,10,08,21.50
2009,08,18,10,09,21.40
2009,08,18,10,10,21.50
2009,08,18,10,11,21.50
2009,08,18,10,12,21.50
2009,08,18,10,13,21.50
2009,08,18,10,14,21.60
2009,08,18,10,15,21.60
2009,08,18,10,16,21.60
2009,08,18,10,17,21.60
2009,08,18,10,18,21.60
2009,08,18,10,19,21.70
2009,08,18,10,20,21.70
2009,08,18,10,21,21.70
2009,08,18,10,22,21.80
2009,08,18,10,23,21.80
2009,08,18,10,24,21.80
2009,08,18,10,25,21.80
2009,08,18,10,26,21.80
2009,08,18,10,27,21.80
2009,08,18,10,28,21.80
2009,08,18,10,29,21.90
2009,08,18,10,30,21.90
2009,08,18,10,31,22.00
2009,08,18,10,32,22.10
2009,08,18,10,33,22.10
2009,08,18,10,34,22.10
2009,08,18,10,35,22.10
2009,08,18,10,36,22.10
2009,08,18,10,37,22.10
2009,08,18,10,38,22.10
2009,08,18,10,39,22.10
2009,08,18,10,40,22.10
2009,08,18,10,41,22.10
2009,08,18,10,42,22.10
2009,08,18,10,43,22.10
2009,08,18,10,44,22.20
2009,08,18,10,45,22.20
2009,08,18,10,46,22.20
2009,08,18,10,47,22.20
2009,08,18,10,48,22.20
2009,08,18,10,49,22.20
2009,08,18,10,50,22.30
2009,08,18,10,51,22.30
2009,08,18,10,52,22.40
2009,08,18,10,53,22.40
2009,08,18,10,54,22.40
2009,08,18,10,55,22.40
2009,08,18,10,56,22.50
2009,08,18,10,57,22.50
2009,08,18,10,58,22.60
2009,08,18,10,59,22.60
2009,08,18,11,00,22.60
2009,08,18,11,01,22.60
2009,08,18,11,02,22.70
2009,08,18,11,03,22.70
2009,08,18,11,04,22.80
2009,08,18,11,05,22.90
2009,08,18,11,06,23.00
2009,08,18,11,07,23.00
2009,08,18,11,08,23.10
2009,08,18,11,09,23.20
2009,08,18,11,10,23.30
2009,08,18,11,11,23.30
2009,08,18,11,12,23.30
2009,08,18,11,13,23.40
2009,08,18,11,14,23.40
2009,08,18,11,15,23.40
2009,08,18,11,16,23.50
2009,08,18,11,17,23.50
2009,08,18,11,18,23.60
2009,08,18,11,19,23.60
2009,08,18,11,20,23.70
2009,08,18,11,21,23.70
2009,08,18,11,22,23.70
2009,08,18,11,23,23.70
2009,08,18,11,24,23.70
2009,08,18,11,25,23.80
2009,08,18,11,26,23.80
2009,08,18,11,27,23.90
2009,08,18,11,28,24.00
2009,08,18,11,29,24.00
2009,08,18,11,30,24.10
2009,08,18,11,31,24.20
2009,08,18,11,32,24.30
2009,08,18,11,33,24.40
2009,08,18,11,34,24.40
2009,08,18,11,35,24.40
2009,08,18,11,36,24.50
2009,08,18,11,37,24.50
2009,08,18,11,38,24.50
2009,08,18,11,39,24.50
2009,08,18,11,40,24.40
2009,08,18,11,41,24.40
2009,08,18,11,42,24.30
2009,08,18,11,43,24.30
2009,08,18,11,44,24.20
2009,08,18,11,45,24.20
2009,08,18,11,46,24.20
2009,08,18,11,47,24.20
2009,08,18,11,48,24.20
2009,08,18,11,49,24.10
2009,08,18,11,50,24.10
2009,08,18,11,51,24.00
2009,08,18,11,52,23.90
2009,08,18,11,53,23.90
2009,08,18,11,54,23.90
2009,08,18,11,55,23.80
2009,08,18,11,56,23.80
2009,08,18,11,57,23.80
2009,08,18,11,58,23.80
2009,08,18,11,59,23.80
2009,08,18,12,00,23.90
2009,08,18,12,01,23.90
2009,08,18,12,02,24.00
2009,08,18,12,03,24.00
2009,08,18,12,04,24.10
2009,08,18,12,05,24.10
2009,08,18,12,06,24.10
2009,08,18,12,07,24.00
2009,08,18,12,08,23.90
2009,08,18,12,09,23.80
2009,08,18,12,10,23.80
2009,08,18,12,11,23.80
2009,08,18,12,12,23.80
2009,08,18,12,13,23.80
2009,08,18,12,14,23.80
2009,08,18,12,15,23.80
2009,08,18,12,16,23.90
2009,08,18,12,17,24.00
2009,08,18,12,18,24.10
2009,08,18,12,19,24.10
2009,08,18,12,20,24.20
2009,08,18,12,21,24.20
2009,08,18,12,22,24.20
2009,08,18,12,23,24.20
2009,08,18,12,24,24.20
2009,08,18,12,25,24.20
2009,08,18,12,26,24.30
2009,08,18,12,27,24.30
2009,08,18,12,28,24.30
2009,08,18,12,29,24.30
2009,08,18,12,30,24.30
2009,08,18,12,31,24.40
2009,08,18,12,32,24.40
2009,08,18,12,33,24.40
2009,08,18,12,34,24.30
2009,08,18,12,35,24.30
2009,08,18,12,36,24.30
2009,08,18,12,37,24.20
2009,08,18,12,38,24.20
2009,08,18,12,39,24.20
2009,08,18,12,40,24.30
2009,08,18,12,41,24.40
2009,08,18,12,42,24.40
2009,08,18,12,43,24.40
2009,08,18,12,44,24.50
2009,08,18,12,45,24.40
2009,08,18,12,46,24.50
2009,08,18,12,47,24.50
2009,08,18,12,48,24.40
2009,08,18,12,49,24.40
2009,08,18,12,50,24.40
2009,08,18,12,51,24.40
2009,08,18,12,52,24.40
2009,08,18,12,53,24.40
2009,08,18,12,54,24.50
2009,08,18,12,55,24.60
2009,08,18,12,56,24.60
2009,08,18,12,57,24.70
2009,08,18,12,58,24.90
2009,08,18,12,59,25.00
2009,08,18,13,00,25.00
2009,08,18,13,01,25.10
2009,08,18,13,02,25.30
2009,08,18,13,03,25.40
2009,08,18,13,04,25.40
2009,08,18,13,05,25.40
2009,08,18,13,06,25.40
2009,08,18,13,07,25.30
2009,08,18,13,08,25.30
2009,08,18,13,09,25.30
2009,08,18,13,10,25.40
2009,08,18,13,11,25.40
2009,08,18,13,12,25.40
2009,08,18,13,13,25.50
2009,08,18,13,14,25.60
2009,08,18,13,15,25.60
2009,08,18,13,16,25.80
2009,08,18,13,17,25.80
2009,08,18,13,18,25.80
2009,08,18,13,19,25.80
2009,08,18,13,20,25.90
2009,08,18,13,21,26.00
2009,08,18,13,22,26.00
2009,08,18,13,23,26.10
2009,08,18,13,24,26.10
2009,08,18,13,25,26.10
2009,08,18,13,26,26.10
2009,08,18,13,27,26.20
2009,08,18,13,28,26.20
2009,08,18,13,29,26.10
2009,08,18,13,30,26.10
2009,08,18,13,31,26.20
2009,08,18,13,32,26.30
2009,08,18,13,33,26.30
2009,08,18,13,34,26.30
2009,08,18,13,35,26.30
2009,08,18,13,36,26.40
2009,08,18,13,37,26.50
2009,08,18,13,38,26.50
2009,08,18,13,39,26.50
2009,08,18,13,40,26.40
2009,08,18,13,41,26.40
2009,08,18,13,42,26.20
2009,08,18,13,43,26.20
2009,08,18,13,44,26.20
2009,08,18,13,45,26.20
2009,08,18,13,46,26.30
2009,08,18,13,47,26.30
2009,08,18,13,48,26.10
2009,08,18,13,49,26.10
2009,08,18,13,50,26.00
2009,08,18,13,51,26.10
2009,08,18,13,52,26.10
2009,08,18,13,53,26.10
2009,08,18,13,54,26.10
2009,08,18,13,55,26.20
2009,08,18,13,56,26.20
2009,08,18,13,57,26.20
2009,08,18,13,58,26.10
2009,08,18,13,59,26.10
2009,08,18,14,00,26.10
2009,08,18,14,01,26.00
2009,08,18,14,02,26.00
2009,08,18,14,03,26.00
2009,08,18,14,04,26.00
2009,08,18,14,05,25.90
2009,08,18,14,06,26.00
2009,08,18,14,07,26.10
2009,08,18,14,08,26.10
2009,08,18,14,09,26.10
2009,08,18,14,10,26.10
2009,08,18,14,11,26.00
2009,08,18,14,12,25.90
2009,08,18,14,13,25.90
2009,08,18,14,14,25.90
2009,08,18,14,15,25.90
2009,08,18,14,16,25.90
2009,08,18,14,17,25.90
2009,08,18,14,18,25.90
2009,08,18,14,19,26.00
2009,08,18,14,20,26.00
2009,08,18,14,21,26.10
2009,08,18,14,22,26.20
2009,08,18,14,23,26.40
2009,08,18,14,24,26.50
2009,08,18,14,25,26.60
2009,08,18,14,26,26.60
2009,08,18,14,27,26.70
2009,08,18,14,28,26.80
2009,08,18,14,29,26.80
2009,08,18,14,30,26.80
2009,08,18,14,31,26.70
2009,08,18,14,32,26.70
2009,08,18,14,33,26.70
2009,08,18,14,34,26.70
2009,08,18,14,35,26.70
2009,08,18,14,36,26.70
2009,08,18,14,37,26.70
2009,08,18,14,38,26.70
2009,08,18,14,39,26.80
2009,08,18,14,40,26.90
2009,08,18,14,41,27.00
2009,08,18,14,42,27.00
2009,08,18,14,43,27.10
2009,08,18,14,44,27.10
2009,08,18,14,45,27.10
2009,08,18,14,46,27.00
2009,08,18,14,47,27.00
2009,08,18,14,48,27.00
2009,08,18,14,49,27.00
2009,08,18,14,50,27.00
2009,08,18,14,51,27.00
2009,08,18,14,52,27.10
2009,08,18,14,53,27.20
2009,08,18,14,54,27.20
2009,08,18,14,55,27.30
2009,08,18,14,56,27.40
2009,08,18,14,57,27.40
2009,08,18,14,58,27.50
2009,08,18,14,59,27.60
2009,08,18,15,00,27.70
2009,08,18,15,01,27.70
2009,08,18,15,02,27.70
2009,08,18,15,03,27.70
2009,08,18,15,04,27.70
2009,08,18,15,05,27.60
2009,08,18,15,06,27.60
2009,08,18,15,07,27.60
2009,08,18,15,08,27.50
2009,08,18,15,09,27.40
2009,08,18,15,10,27.40
2009,08,18,15,11,27.30
2009,08,18,15,12,27.30
2009,08,18,15,13,27.30
2009,08,18,15,14,27.40
2009,08,18,15,15,27.40
2009,08,18,15,16,27.40
2009,08,18,15,17,27.40
2009,08,18,15,18,27.40
2009,08,18,15,19,27.50
2009,08,18,15,20,27.60
2009,08,18,15,21,27.60
2009,08,18,15,22,27.60
2009,08,18,15,23,27.50
2009,08,18,15,24,27.40
2009,08,18,15,25,27.40
2009,08,18,15,26,27.40
2009,08,18,15,27,27.50
2009,08,18,15,28,27.50
2009,08,18,15,29,27.60
2009,08,18,15,30,27.60
2009,08,18,15,31,27.60
2009,08,18,15,32,27.50
2009,08,18,15,33,27.50
2009,08,18,15,34,27.50
2009,08,18,15,35,27.50
2009,08,18,15,36,27.50
2009,08,18,15,37,27.50
2009,08,18,15,38,27.50
2009,08,18,15,39,27.50
2009,08,18,15,40,27.60
2009,08,18,15,41,27.60
2009,08,18,15,42,27.60
2009,08,18,15,43,27.60
2009,08,18,15,44,27.60
2009,08,18,15,45,27.40
2009,08,18,15,46,27.40
2009,08,18,15,47,27.30
2009,08,18,15,48,27.30
2009,08,18,15,49,27.20
2009,08,18,15,50,27.20
2009,08,18,15,51,27.10
2009,08,18,15,52,27.00
2009,08,18,15,53,27.00
2009,08,18,15,54,26.90
2009,08,18,15,55,26.90
2009,08,18,15,56,26.80
2009,08,18,15,57,26.80
2009,08,18,15,58,26.80
2009,08,18,15,59,26.80
2009,08,18,16,00,26.70
2009,08,18,16,01,26.70
2009,08,18,16,02,26.70
2009,08,18,16,03,26.70
2009,08,18,16,04,26.70
2009,08,18,16,05,26.70
2009,08,18,16,06,26.70
2009,08,18,16,07,26.70
2009,08,18,16,08,26.70
2009,08,18,16,09,26.60
2009,08,18,16,10,26.60
2009,08,18,16,11,26.60
2009,08,18,16,12,26.60
2009,08,18,16,13,26.60
2009,08,18,16,14,26.40
2009,08,18,16,15,26.30
2009,08,18,16,16,26.30
2009,08,18,16,17,26.20
2009,08,18,16,18,26.20
2009,08,18,16,19,26.10
2009,08,18,16,20,26.10
2009,08,18,16,21,26.00
2009,08,18,16,22,25.90
2009,08,18,16,23,25.90
2009,08,18,16,24,25.90
2009,08,18,16,25,25.90
2009,08,18,16,26,25.90
2009,08,18,16,27,26.00
2009,08,18,16,28,26.10
2009,08,18,16,29,26.10
2009,08,18,16,30,26.10
2009,08,18,16,31,26.10
2009,08,18,16,32,26.20
2009,08,18,16,33,26.20
2009,08,18,16,34,26.10
2009,08,18,16,35,26.00
2009,08,18,16,36,26.00
2009,08,18,16,37,25.90
2009,08,18,16,38,25.90
2009,08,18,16,39,25.90
2009,08,18,16,40,25.80
2009,08,18,16,41,25.70
2009,08,18,16,42,25.60
2009,08,18,16,43,25.50
2009,08,18,16,44,25.50
2009,08,18,16,45,25.50
2009,08,18,16,46,25.40
2009,08,18,16,47,25.40
2009,08,18,16,48,25.40
2009,08,18,16,49,25.40
2009,08,18,16,50,25.30
2009,08,18,16,51,25.30
2009,08,18,16,52,25.30
2009,08,18,16,53,25.30
2009,08,18,16,54,25.30
2009,08,18,16,55,25.30
2009,08,18,16,56,25.30
2009,08,18,16,57,25.20
2009,08,18,16,58,25.20
2009,08,18,16,59,25.20
2009,08,18,17,00,25.20
2009,08,18,17,01,25.10
2009,08,18,17,02,25.10
2009,08,18,17,03,25.10
2009,08,18,17,04,25.10
2009,08,18,17,05,25.10
2009,08,18,17,06,25.10
2009,08,18,17,07,25.10
2009,08,18,17,08,25.10
2009,08,18,17,09,25.10
2009,08,18,17,10,25.10
2009,08,18,17,11,25.10
2009,08,18,17,12,25.10
2009,08,18,17,13,25.10
2009,08,18,17,14,25.20
2009,08,18,17,15,25.20
2009,08,18,17,16,25.20
2009,08,18,17,17,25.20
2009,08,18,17,18,25.20
2009,08,18,17,19,25.20
2009,08,18,17,20,25.20
2009,08,18,17,21,25.20
2009,08,18,17,22,25.20
2009,08,18,17,23,25.20
2009,08,18,17,24,25.30
2009,08,18,17,25,25.30
2009,08,18,17,26,25.30
2009,08,18,17,27,25.30
2009,08,18,17,28,25.30
2009,08,18,17,29,25.30
2009,08,18,17,30,25.30
2009,08,18,17,31,25.30
2009,08,18,17,32,25.30
2009,08,18,17,33,25.40